Hourly Data Report for October 10, 2015

All times are specified in Local Standard Time (LST). Add 1 hour to adjust for Daylight Saving Time where and when it is observed.

SAINT JOHN A
NEW BRUNSWICK

45°18'58.000" N
65°53'24.000" W
108.80 m
8104901
71609
YSJ

Download Data

Hourly Data (October 2015)
Hourly Data Report for October 10, 2015
Temp Definition
°C
Dew Point Temp Definition
°C
Rel Hum Definition
%
Wind Dir Definition
10's deg

Wind Spd Definition
km/h
Visibility Definition
km
Stn Press Definition
kPa
Hmdx Definition


Wind Chill Definition


Weather Definition


TIME
00:00 Legend Double Dagger 11.8 11.7 99 22 23 4.8 98.86     Rain,Fog
01:00 Legend Double Dagger 12.7 12.4 98 24 13 4.8 98.81     Rain,Fog
02:00 Legend Double Dagger 11.5 10.4 93 30 23 6.4 98.84     Drizzle,Fog
03:00 Legend Double Dagger 8.9 7.5 91 32 34 9.7 98.95     Drizzle,Fog
04:00 Legend Double Dagger 6.5 4.2 85 32 43 12.9 99.07     LegendNANA
05:00 Legend Double Dagger 5.7 3.4 85 32 26 19.3 99.27     Cloudy
06:00 Legend Double Dagger 4.8 2.3 84 32 27 24.1 99.39     LegendNANA
07:00 Legend Double Dagger 4.6 1.5 80 32 31 24.1 99.46     LegendNANA
08:00 Legend Double Dagger 5.6 1.5 75 32 30 24.1 99.57     Mainly Clear
09:00 Legend Double Dagger 5.9 0.3 67 32 30 24.1 99.75     LegendNANA
10:00 Legend Double Dagger 7.0 -0.2 60 29 19 24.1 99.90     LegendNANA
11:00 Legend Double Dagger 8.1 -2.0 49 29 25 24.1 99.99     Mainly Clear
12:00 Legend Double Dagger 8.4 -3.4 43 32 30 24.1 100.05     LegendNANA
13:00 Legend Double Dagger 8.3 -2.3 47 32 29 24.1 100.03     LegendNANA
14:00 Legend Double Dagger 8.0 -4.5 41 31 28 24.1 100.02     Mostly Cloudy
15:00 Legend Double Dagger 8.1 -3.7 43 32 25 24.1 100.02     LegendNANA
16:00 Legend Double Dagger 8.3 -5.9 36 33 29 24.1 100.00     LegendNANA
17:00 Legend Double Dagger 7.8 -5.3 39 31 15 24.1 100.07     Mainly Clear
18:00 Legend Double Dagger 3.5 -3.1 62 22 8 24.1 100.12     LegendNANA
19:00 Legend Double Dagger 0.6 -1.3 87 25 6 24.1 100.20     LegendNANA
20:00 Legend Double Dagger 0.6 -1.8 84 22 6 24.1 100.25     Mainly Clear
21:00 Legend Double Dagger -0.3 -1.6 91 21 4 24.1 100.25   -2 LegendNANA
22:00 Legend Double Dagger -2.0 -2.7 95 22 3 24.1 100.27   -3 LegendNANA
23:00 Legend Double Dagger -1.8 -2.6 94 36 1 24.1 100.26   -2 Mostly Cloudy

Notes on Data Quality.

Legend

  • E = Estimated
  • M = Missing
  • NA = Not Available
  • ‡ = Partner data that is not subject to review by the National Climate Archives
Date modified: